| time (UTC) | temp F | wind direction | speed MPH | gust MPH | rain 1hr in | rain 24hr in | rain mn in | humidity % | barometer mb |
| 20260905203002 | 56 | 0.0 | 0.0 | 0.00 | 0.00 | 0.00 | 10 | 1012.3 | |
| 20260905202502 | 57 | 0.0 | 0.0 | 0.00 | 0.00 | 0.00 | 10 | 1012.3 | |
| 20260905202002 | 57 | 0.0 | 0.0 | 0.00 | 0.00 | 0.00 | 10 | 1012.1 | |
| 20260905201502 | 57 | 0.0 | 0.0 | 0.00 | 0.00 | 0.00 | 10 | 1012.0 | |
| 20260905201002 | 57 | 0.0 | 0.0 | 0.00 | 0.00 | 0.00 | 10 | 1012.2 | |
| 20260905200501 | 57 | 0.0 | 0.0 | 0.00 | 0.00 | 0.00 | 10 | 1011.9 | |
| 20260905200002 | 57 | 0.0 | 0.0 | 0.00 | 0.00 | 0.00 | 10 | 1012.0 | |
| 20260905195502 | 57 | 0.0 | 0.0 | 0.00 | 0.00 | 0.00 | 10 | 1011.8 | |
| 20260905195002 | 57 | 0.0 | 0.0 | 0.00 | 0.00 | 0.00 | 10 | 1012.0 | |
| 20260905194502 | 57 | 0.0 | 0.0 | 0.00 | 0.00 | 0.00 | 10 | 1012.0 | |
| 20260905194002 | 57 | 0.0 | 0.0 | 0.00 | 0.00 | 0.00 | 10 | 1011.9 | |
| 20260905193502 | 57 | 0.0 | 0.0 | 0.00 | 0.00 | 0.00 | 10 | 1011.6 | |
| 20260905193002 | 57 | 0.0 | 0.0 | 0.00 | 0.00 | 0.00 | 10 | 1011.9 | |
| 20260905192502 | 57 | 0.0 | 0.0 | 0.00 | 0.00 | 0.00 | 10 | 1012.0 | |
| 20260905192002 | 57 | 0.0 | 0.0 | 0.00 | 0.00 | 0.00 | 10 | 1011.9 | |
| 20260905191503 | 57 | 0.0 | 0.0 | 0.00 | 0.00 | 0.00 | 10 | 1011.8 | |
| 20260905191002 | 57 | 0.0 | 0.0 | 0.00 | 0.00 | 0.00 | 10 | 1011.8 | |
| 20260905190501 | 58 | 0.0 | 0.0 | 0.00 | 0.00 | 0.00 | 10 | 1011.7 | |
| 20260905190002 | 57 | 0.0 | 0.0 | 0.00 | 0.00 | 0.00 | 10 | 1011.7 | |
| 20260905185502 | 57 | 0.0 | 0.0 | 0.00 | 0.00 | 0.00 | 10 | 1011.9 | |
| 20260905185002 | 57 | 0.0 | 0.0 | 0.00 | 0.00 | 0.00 | 10 | 1011.8 | |
| 20260905184502 | 57 | 0.0 | 0.0 | 0.00 | 0.00 | 0.00 | 10 | 1011.8 | |
| 20260905184002 | 57 | 0.0 | 0.0 | 0.00 | 0.00 | 0.00 | 10 | 1012.0 | |
| 20260905183501 | 57 | 0.0 | 0.0 | 0.00 | 0.00 | 0.00 | 10 | 1012.0 | |
| 20260905183002 | 57 | 0.0 | 0.0 | 0.00 | 0.00 | 0.00 | 10 | 1012.1 | |
| 20260905182502 | 56 | 0.0 | 0.0 | 0.00 | 0.00 | 0.00 | 10 | 1012.2 | |
| 20260905182002 | 56 | 0.0 | 0.0 | 0.00 | 0.00 | 0.00 | 10 | 1012.2 | |
| 20260905181502 | 56 | 0.0 | 0.0 | 0.00 | 0.00 | 0.00 | 10 | 1012.2 | |
| 20260905181002 | 56 | 0.0 | 0.0 | 0.00 | 0.00 | 0.00 | 10 | 1012.2 | |
| 20260905180502 | 56 | 0.0 | 0.0 | 0.00 | 0.00 | 0.00 | 10 | 1012.0 | |
| 20260905180002 | 57 | 0.0 | 0.0 | 0.00 | 0.00 | 0.00 | 10 | 1012.0 | |
| 20260905175502 | 56 | 0.0 | 0.0 | 0.00 | 0.00 | 0.00 | 10 | 1011.9 | |
| 20260905175002 | 56 | 0.0 | 0.0 | 0.00 | 0.00 | 0.00 | 10 | 1011.8 | |
| 20260905174502 | 56 | 0.0 | 0.0 | 0.00 | 0.00 | 0.00 | 10 | 1011.7 | |
| 20260905174002 | 57 | 0.0 | 0.0 | 0.00 | 0.00 | 0.00 | 10 | 1011.7 | |
| 20260905173503 | 57 | 0.0 | 0.0 | 0.00 | 0.00 | 0.00 | 10 | 1011.8 | |
| 20260905173002 | 57 | 0.0 | 0.0 | 0.00 | 0.00 | 0.00 | 10 | 1011.8 | |
| 20260905172502 | 57 | 0.0 | 0.0 | 0.00 | 0.00 | 0.00 | 10 | 1011.7 | |
| 20260905172002 | 57 | 0.0 | 0.0 | 0.00 | 0.00 | 0.00 | 10 | 1011.7 | |
| 20260905171502 | 58 | 0.0 | 0.0 | 0.00 | 0.00 | 0.00 | 10 | 1011.8 | |
| 20260905171002 | 57 | 0.0 | 0.0 | 0.00 | 0.00 | 0.00 | 10 | 1011.6 | |
| 20260905170501 | 58 | 0.0 | 0.0 | 0.00 | 0.00 | 0.00 | 10 | 1011.6 | |
| 20260905170002 | 58 | 0.0 | 0.0 | 0.00 | 0.00 | 0.00 | 10 | 1011.6 | |
| 20260905165502 | 58 | 0.0 | 0.0 | 0.00 | 0.00 | 0.00 | 10 | 1011.7 | |
| 20260905165002 | 58 | 0.0 | 0.0 | 0.00 | 0.00 | 0.00 | 10 | 1011.6 | |
| 20260905164502 | 58 | 0.0 | 0.0 | 0.00 | 0.00 | 0.00 | 10 | 1011.7 | |
| 20260905164002 | 58 | 0.0 | 0.0 | 0.00 | 0.00 | 0.00 | 10 | 1011.6 | |
| 20260905163502 | 58 | 0.0 | 0.0 | 0.00 | 0.00 | 0.00 | 10 | 1011.7 | |
| 20260905163002 | 58 | 0.0 | 0.0 | 0.00 | 0.00 | 0.00 | 10 | 1011.7 | |
| 20260905162501 | 58 | 0.0 | 0.0 | 0.00 | 0.00 | 0.00 | 10 | 1011.5 | |
| 20260905162001 | 58 | 0.0 | 0.0 | 0.00 | 0.00 | 0.00 | 10 | 1011.4 | |
| 20260905161501 | 58 | 0.0 | 0.0 | 0.00 | 0.00 | 0.00 | 10 | 1011.5 | |
| 20260905161002 | 58 | 0.0 | 0.0 | 0.00 | 0.00 | 0.00 | 10 | 1011.4 | |
| 20260905160502 | 58 | 0.0 | 0.0 | 0.00 | 0.00 | 0.00 | 10 | 1011.4 | |
| 20260905160002 | 58 | 0.0 | 0.0 | 0.00 | 0.00 | 0.00 | 98 | 1011.3 | |
| 20260905155502 | 46 | 0.0 | 0.0 | 0.00 | 0.00 | 0.00 | 45 | 1011.3 | |
| 20260905155002 | 59 | 0.0 | 0.0 | 0.00 | 0.00 | 0.00 | 98 | 1011.4 | |
| 20260905154501 | 59 | 0.0 | 0.0 | 0.00 | 0.00 | 0.00 | 98 | 1011.4 | |
| 20260905154002 | 59 | 0.0 | 0.0 | 0.00 | 0.00 | 0.00 | 99 | 1011.3 | |
| 20260905153502 | 59 | 0.0 | 0.0 | 0.00 | 0.00 | 0.00 | 91 | 1011.4 | |
| 20260905153002 | 59 | 0.0 | 0.0 | 0.00 | 0.00 | 0.00 | 88 | 1011.5 | |
| 20260905152502 | 59 | 0.0 | 0.0 | 0.00 | 0.00 | 0.00 | 98 | 1011.5 | |
| 20260905152001 | 59 | 0.0 | 0.0 | 0.00 | 0.00 | 0.00 | 88 | 1011.5 | |
| 20260905151502 | 59 | 0.0 | 0.0 | 0.00 | 0.00 | 0.00 | 94 | 1011.7 | |
| 20260905151002 | 58 | 0.0 | 0.0 | 0.00 | 0.00 | 0.00 | 98 | 1011.8 | |
| 20260905150502 | 59 | 0.0 | 0.0 | 0.00 | 0.00 | 0.00 | 92 | 1011.6 | |
| 20260905150002 | 59 | 0.0 | 0.0 | 0.00 | 0.00 | 0.00 | 47 | 1011.4 | |
| 20260905145502 | 59 | 0.0 | 0.0 | 0.00 | 0.00 | 0.00 | 60 | 1011.7 | |
| 20260905145002 | 62 | 0.0 | 0.0 | 0.00 | 0.00 | 0.00 | 95 | 1011.7 | |
| 20260905144502 | 63 | 0.0 | 0.0 | 0.00 | 0.00 | 0.00 | 10 | 1011.2 | |
| 20260905144002 | 63 | 0.0 | 0.0 | 0.00 | 0.00 | 0.00 | 93 | 1010.9 | |
| 20260905143502 | 63 | 0.0 | 0.0 | 0.00 | 0.00 | 0.00 | 10 | 1010.9 | |
| 20260905143002 | 63 | 0.0 | 0.0 | 0.00 | 0.00 | 0.00 | 10 | 1010.8 | |
| 20260905142502 | 63 | 0.0 | 0.0 | 0.00 | 0.00 | 0.00 | 10 | 1010.9 | |
| 20260905142002 | 64 | 0.0 | 0.0 | 0.00 | 0.00 | 0.00 | 10 | 1010.8 | |
| 20260905141501 | 64 | 0.0 | 0.0 | 0.00 | 0.00 | 0.00 | 10 | 1010.8 | |
| 20260905141002 | 64 | 0.0 | 0.0 | 0.00 | 0.00 | 0.00 | 10 | 1010.7 | |
| 20260905140502 | 65 | 0.0 | 0.0 | 0.00 | 0.00 | 0.00 | 10 | 1010.7 | |
| 20260905140002 | 65 | 0.0 | 0.0 | 0.00 | 0.00 | 0.00 | 10 | 1010.7 | |
| 20260905135502 | 66 | 0.0 | 0.0 | 0.00 | 0.00 | 0.00 | 10 | 1010.6 | |
| 20260905135002 | 66 | 0.0 | 0.0 | 0.00 | 0.00 | 0.00 | 10 | 1010.5 | |
| 20260905134502 | 66 | 0.0 | 0.0 | 0.00 | 0.00 | 0.00 | 10 | 1010.5 | |
| 20260905134003 | 65 | 0.0 | 0.0 | 0.00 | 0.00 | 0.00 | 10 | 1010.4 | |
| 20260905133502 | 66 | 0.0 | 0.0 | 0.00 | 0.00 | 0.00 | 10 | 1010.4 | |
| 20260905133002 | 66 | 0.0 | 0.0 | 0.00 | 0.00 | 0.00 | 10 | 1010.4 | |
| 20260905132502 | 66 | 0.0 | 0.0 | 0.00 | 0.00 | 0.00 | 10 | 1010.7 | |
| 20260905132002 | 67 | 0.0 | 0.0 | 0.00 | 0.00 | 0.00 | 10 | 1010.6 | |
| 20260905131502 | 66 | 0.0 | 0.0 | 0.00 | 0.00 | 0.00 | 10 | 1010.7 | |
| 20260905131002 | 66 | 0.0 | 0.0 | 0.00 | 0.00 | 0.00 | 10 | 1010.5 | |
| 20260905130502 | 66 | 0.0 | 0.0 | 0.00 | 0.00 | 0.00 | 10 | 1010.6 | |
| 20260905130001 | 65 | 0.0 | 0.0 | 0.00 | 0.00 | 0.00 | 10 | 1010.7 | |
| 20260905125502 | 65 | 0.0 | 0.0 | 0.00 | 0.00 | 0.00 | 10 | 1010.6 | |
| 20260905125002 | 66 | 0.0 | 0.0 | 0.00 | 0.00 | 0.00 | 10 | 1010.5 | |
| 20260905124502 | 65 | 0.0 | 0.0 | 0.00 | 0.00 | 0.00 | 10 | 1010.7 | |
| 20260905124002 | 63 | 0.0 | 0.0 | 0.00 | 0.00 | 0.00 | 10 | 1010.8 | |
| 20260905123002 | 63 | 0.0 | 0.0 | 0.00 | 0.00 | 0.00 | 10 | 1010.7 | |
| 20260905122502 | 64 | 0.0 | 0.0 | 0.00 | 0.00 | 0.00 | 10 | 1010.5 | |
| 20260905122002 | 65 | 0.0 | 0.0 | 0.00 | 0.00 | 0.00 | 10 | 1010.5 | |
| 20260905121502 | 66 | 0.0 | 0.0 | 0.00 | 0.00 | 0.00 | 10 | 1010.5 | |
| 20260905121001 | 65 | 0.0 | 0.0 | 0.00 | 0.00 | 0.00 | 10 | 1010.5 | |
| 20260905120502 | 65 | 0.0 | 0.0 | 0.00 | 0.00 | 0.00 | 10 | 1010.6 | |
| 20260905120002 | 65 | 0.0 | 0.0 | 0.00 | 0.00 | 0.00 | 10 | 1010.6 | |
| 20260905115502 | 65 | 0.0 | 0.0 | 0.00 | 0.00 | 0.00 | 10 | 1010.5 | |
| 20260905115002 | 64 | 0.0 | 0.0 | 0.00 | 0.00 | 0.00 | 10 | 1010.6 | |
| 20260905114502 | 63 | 0.0 | 0.0 | 0.00 | 0.00 | 0.00 | 98 | 1010.6 | |
| 20260905114002 | 64 | 0.0 | 0.0 | 0.00 | 0.00 | 0.00 | 96 | 1010.6 | |
| 20260905113502 | 63 | 0.0 | 0.0 | 0.00 | 0.00 | 0.00 | 98 | 1010.6 | |
| 20260905113002 | 63 | 0.0 | 0.0 | 0.00 | 0.00 | 0.00 | 10 | 1010.5 | |
| 20260905112502 | 64 | 0.0 | 0.0 | 0.00 | 0.00 | 0.00 | 98 | 1010.5 | |
| 20260905112002 | 64 | 0.0 | 0.0 | 0.00 | 0.00 | 0.00 | 10 | 1010.4 | |
| 20260905111502 | 64 | 0.0 | 0.0 | 0.00 | 0.00 | 0.00 | 10 | 1010.5 | |
| 20260905111002 | 64 | 0.0 | 0.0 | 0.00 | 0.00 | 0.00 | 10 | 1010.4 | |
| 20260905110502 | 64 | 0.0 | 0.0 | 0.00 | 0.00 | 0.00 | 10 | 1010.4 | |
| 20260905110002 | 64 | 0.0 | 0.0 | 0.00 | 0.00 | 0.00 | 10 | 1010.4 | |
| 20260905105502 | 65 | 0.0 | 0.0 | 0.00 | 0.00 | 0.00 | 10 | 1010.4 | |
| 20260905105002 | 66 | 0.0 | 0.0 | 0.00 | 0.00 | 0.00 | 10 | 1010.2 | |
| 20260905104502 | 65 | 0.0 | 0.0 | 0.00 | 0.00 | 0.00 | 10 | 1010.4 | |
| 20260905104002 | 65 | 0.0 | 0.0 | 0.00 | 0.00 | 0.00 | 10 | 1010.3 | |
| 20260905103501 | 65 | 0.0 | 0.0 | 0.00 | 0.00 | 0.00 | 10 | 1010.4 | |
| 20260905103002 | 64 | 0.0 | 0.0 | 0.00 | 0.00 | 0.00 | 94 | 1010.2 | |
| 20260905102501 | 64 | 0.0 | 0.0 | 0.00 | 0.00 | 0.00 | 92 | 1010.2 | |
| 20260905102002 | 64 | 0.0 | 0.0 | 0.00 | 0.00 | 0.00 | 84 | 1010.0 | |
| 20260905101502 | 64 | 0.0 | 0.0 | 0.00 | 0.00 | 0.00 | 82 | 1009.9 | |
| 20260905101002 | 63 | 0.0 | 0.0 | 0.00 | 0.00 | 0.00 | 79 | 1010.0 | |
| 20260905100502 | 63 | 0.0 | 0.0 | 0.00 | 0.00 | 0.00 | 81 | 1010.0 | |
| 20260905100002 | 64 | 0.0 | 0.0 | 0.00 | 0.00 | 0.00 | 86 | 1009.8 | |
| 20260905095502 | 65 | 0.0 | 0.0 | 0.00 | 0.00 | 0.00 | 90 | 1009.8 | |
| 20260905095002 | 64 | 0.0 | 0.0 | 0.00 | 0.00 | 0.00 | 71 | 1009.8 | |
| 20260905094502 | 63 | 0.0 | 0.0 | 0.00 | 0.00 | 0.00 | 64 | 1009.8 | |
| 20260905094002 | 63 | 0.0 | 0.0 | 0.00 | 0.00 | 0.00 | 80 | 1009.8 | |
| 20260905093501 | 64 | 0.0 | 0.0 | 0.00 | 0.00 | 0.00 | 80 | 1009.6 | |
| 20260905093002 | 65 | 0.0 | 0.0 | 0.00 | 0.00 | 0.00 | 63 | 1009.6 | |
| 20260905092502 | 64 | 0.0 | 0.0 | 0.00 | 0.00 | 0.00 | 54 | 1009.7 | |
| 20260905092002 | 62 | 0.0 | 0.0 | 0.00 | 0.00 | 0.00 | 52 | 1009.6 | |
| 20260905091501 | 62 | 0.0 | 0.0 | 0.00 | 0.00 | 0.00 | 36 | 1009.6 | |
| 20260905091002 | 62 | 0.0 | 0.0 | 0.00 | 0.00 | 0.00 | 44 | 1009.4 | |
| 20260905090502 | 62 | 0.0 | 0.0 | 0.00 | 0.00 | 0.00 | 34 | 1009.6 | |
| 20260905090002 | 47 | 0.0 | 0.0 | 0.00 | 0.00 | 0.00 | 27 | 1009.4 | |
| 20260905085502 | 62 | 0.0 | 0.0 | 0.00 | 0.00 | 0.00 | 59 | 1009.6 | |
| 20260905085002 | 64 | 0.0 | 0.0 | 0.00 | 0.00 | 0.00 | 66 | 1009.6 | |
| 20260905084502 | 63 | 0.0 | 0.0 | 0.00 | 0.00 | 0.00 | 58 | 1009.5 | |
| 20260905084002 | 64 | 0.0 | 0.0 | 0.00 | 0.00 | 0.00 | 54 | 1009.4 | |
| 20260905083502 | 63 | 0.0 | 0.0 | 0.00 | 0.00 | 0.00 | 52 | 1009.5 | |
| 20260905083002 | 62 | 0.0 | 0.0 | 0.00 | 0.00 | 0.00 | 56 | 1009.4 | |
| 20260905082502 | 62 | 0.0 | 0.0 | 0.00 | 0.00 | 0.00 | 51 | 1009.3 | |
| 20260905082002 | 62 | 0.0 | 0.0 | 0.00 | 0.00 | 0.00 | 52 | 1009.3 | |
| 20260905081502 | 63 | 0.0 | 0.0 | 0.00 | 0.00 | 0.00 | 50 | 1009.3 | |
| 20260905081002 | 62 | 0.0 | 0.0 | 0.00 | 0.00 | 0.00 | 45 | 1009.2 | |
| 20260905080501 | 62 | 0.0 | 0.0 | 0.00 | 0.00 | 0.00 | 43 | 1009.2 | |
| 20260905080002 | 62 | 0.0 | 0.0 | 0.00 | 0.00 | 0.00 | 38 | 1009.0 | |
| 20260905075502 | 62 | 0.0 | 0.0 | 0.00 | 0.00 | 0.00 | 41 | 1009.1 | |
| 20260905075002 | 62 | 0.0 | 0.0 | 0.00 | 0.00 | 0.00 | 30 | 1009.0 | |
| 20260905074502 | 62 | 0.0 | 0.0 | 0.00 | 0.00 | 0.00 | 33 | 1008.9 | |
| 20260905074007 | 62 | 0.0 | 0.0 | 0.00 | 0.00 | 0.00 | 36 | 1008.9 | |
| 20260905073502 | 61 | 0.0 | 0.0 | 0.00 | 0.00 | 0.00 | 31 | 1008.9 | |
| 20260905073001 | 62 | 0.0 | 0.0 | 0.00 | 0.00 | 0.00 | 34 | 1008.8 | |
| 20260905072502 | 62 | 0.0 | 0.0 | 0.00 | 0.00 | 0.00 | 91 | 1008.8 | |
| 20260905072002 | 62 | 0.0 | 0.0 | 0.00 | 0.00 | 0.00 | 88 | 1008.8 | |
| 20260905071502 | 61 | 0.0 | 0.0 | 0.00 | 0.00 | 0.00 | 92 | 1008.8 | |
| 20260905071002 | 61 | 0.0 | 0.0 | 0.00 | 0.00 | 0.00 | 93 | 1008.8 | |
| 20260905070502 | 62 | 0.0 | 0.0 | 0.00 | 0.00 | 0.00 | 93 | 1008.8 | |
| 20260905070002 | 62 | 0.0 | 0.0 | 0.00 | 0.00 | 0.00 | 96 | 1008.5 | |
| 20260905065502 | 61 | 0.0 | 0.0 | 0.00 | 0.00 | 0.00 | 98 | 1008.7 | |
| 20260905065002 | 61 | 0.0 | 0.0 | 0.00 | 0.00 | 0.00 | 97 | 1008.5 | |
| 20260905064502 | 61 | 0.0 | 0.0 | 0.00 | 0.00 | 0.00 | 99 | 1008.6 | |
| 20260905064002 | 61 | 0.0 | 0.0 | 0.00 | 0.00 | 0.00 | 99 | 1008.5 | |
| 20260905063502 | 61 | 0.0 | 0.0 | 0.00 | 0.00 | 0.00 | 99 | 1008.3 | |
| 20260905063004 | 61 | 0.0 | 0.0 | 0.00 | 0.00 | 0.00 | 10 | 1008.2 | |
| 20260905062502 | 60 | 0.0 | 0.0 | 0.00 | 0.00 | 0.00 | 10 | 1008.1 | |
| 20260905062002 | 60 | 0.0 | 0.0 | 0.00 | 0.00 | 0.00 | 10 | 1008.2 | |
| 20260905061502 | 60 | 0.0 | 0.0 | 0.00 | 0.00 | 0.00 | 10 | 1008.1 | |
| 20260905061002 | 60 | 0.0 | 0.0 | 0.00 | 0.00 | 0.00 | 10 | 1008.0 | |
| 20260905060501 | 59 | 0.0 | 0.0 | 0.00 | 0.00 | 0.00 | 10 | 1008.1 | |
| 20260905060002 | 59 | 0.0 | 0.0 | 0.00 | 0.00 | 0.00 | 10 | 1008.0 | |
| 20260905055502 | 59 | 0.0 | 0.0 | 0.00 | 0.00 | 0.00 | 10 | 1007.9 | |
| 20260905055002 | 59 | 0.0 | 0.0 | 0.00 | 0.00 | 0.00 | 10 | 1007.9 | |
| 20260905054502 | 59 | 0.0 | 0.0 | 0.00 | 0.00 | 0.00 | 10 | 1007.8 | |
| 20260905054001 | 59 | 0.0 | 0.0 | 0.00 | 0.00 | 0.00 | 10 | 1007.7 | |
| 20260905053502 | 59 | 0.0 | 0.0 | 0.00 | 0.00 | 0.00 | 10 | 1007.7 | |
| 20260905053002 | 59 | 0.0 | 0.0 | 0.00 | 0.00 | 0.00 | 10 | 1007.6 | |
| 20260905052502 | 59 | 0.0 | 0.0 | 0.00 | 0.00 | 0.00 | 10 | 1007.4 | |
| 20260905052002 | 59 | 0.0 | 0.0 | 0.00 | 0.00 | 0.00 | 10 | 1007.5 | |
| 20260905051502 | 59 | 0.0 | 0.0 | 0.00 | 0.00 | 0.00 | 10 | 1007.5 | |
| 20260905051002 | 59 | 0.0 | 0.0 | 0.00 | 0.00 | 0.00 | 10 | 1007.4 | |
| 20260905050502 | 59 | 0.0 | 0.0 | 0.00 | 0.00 | 0.00 | 10 | 1007.5 | |
| 20260905050001 | 58 | 0.0 | 0.0 | 0.00 | 0.00 | 0.00 | 10 | 1007.3 | |
| 20260905045502 | 58 | 0.0 | 0.0 | 0.00 | 0.00 | 0.00 | 10 | 1007.3 | |
| 20260905045002 | 59 | 0.0 | 0.0 | 0.00 | 0.00 | 0.00 | 10 | 1007.2 | |
| 20260905044502 | 58 | 0.0 | 0.0 | 0.00 | 0.00 | 0.00 | 10 | 1007.3 | |
| 20260905044002 | 58 | 0.0 | 0.0 | 0.00 | 0.00 | 0.00 | 10 | 1007.3 | |
| 20260905043502 | 58 | 0.0 | 0.0 | 0.00 | 0.00 | 0.00 | 10 | 1006.9 | |
| 20260905043002 | 58 | 0.0 | 0.0 | 0.00 | 0.00 | 0.00 | 10 | 1007.0 | |
| 20260905042502 | 58 | 0.0 | 0.0 | 0.00 | 0.00 | 0.00 | 10 | 1006.8 | |
| 20260905042002 | 58 | 0.0 | 0.0 | 0.00 | 0.00 | 0.00 | 10 | 1006.9 | |
| 20260905041502 | 59 | 0.0 | 0.0 | 0.00 | 0.00 | 0.00 | 10 | 1006.8 | |
| 20260905041001 | 59 | 0.0 | 0.0 | 0.00 | 0.00 | 0.00 | 10 | 1006.6 | |
| 20260905040502 | 59 | 0.0 | 0.0 | 0.00 | 0.00 | 0.00 | 10 | 1006.7 | |
| 20260905040002 | 59 | 0.0 | 0.0 | 0.00 | 0.00 | 0.00 | 10 | 1006.4 | |
| 20260905035501 | 59 | 0.0 | 0.0 | 0.00 | 0.00 | 0.00 | 10 | 1006.3 | |
| 20260905035002 | 59 | 0.0 | 0.0 | 0.00 | 0.00 | 0.00 | 10 | 1006.2 | |
| 20260905034502 | 59 | 0.0 | 0.0 | 0.00 | 0.00 | 0.00 | 10 | 1006.0 | |
| 20260905034002 | 59 | 0.0 | 0.0 | 0.00 | 0.00 | 0.00 | 10 | 1005.8 | |
| 20260905033502 | 60 | 0.0 | 0.0 | 0.00 | 0.00 | 0.00 | 10 | 1005.6 | |
| 20260905033002 | 60 | 0.0 | 0.0 | 0.00 | 0.00 | 0.00 | 10 | 1005.7 | |
| 20260905032502 | 60 | 0.0 | 0.0 | 0.00 | 0.00 | 0.00 | 10 | 1005.6 | |
| 20260905032002 | 60 | 0.0 | 0.0 | 0.00 | 0.00 | 0.00 | 10 | 1005.5 | |
| 20260905031501 | 60 | 0.0 | 0.0 | 0.00 | 0.00 | 0.00 | 10 | 1005.4 | |
| 20260905031001 | 60 | 0.0 | 0.0 | 0.00 | 0.00 | 0.00 | 10 | 1005.2 | |
| 20260905030502 | 60 | 0.0 | 0.0 | 0.00 | 0.00 | 0.00 | 10 | 1005.2 | |
| 20260905030002 | 60 | 0.0 | 0.0 | 0.00 | 0.00 | 0.00 | 10 | 1005.1 | |
| 20260905025502 | 60 | 0.0 | 0.0 | 0.00 | 0.00 | 0.00 | 10 | 1005.2 | |
| 20260905025002 | 60 | 0.0 | 0.0 | 0.00 | 0.00 | 0.00 | 10 | 1005.4 | |
| 20260905024502 | 60 | 0.0 | 0.0 | 0.00 | 0.00 | 0.00 | 10 | 1005.3 | |
| 20260905024002 | 60 | 0.0 | 0.0 | 0.00 | 0.00 | 0.00 | 10 | 1005.1 | |
| 20260905023502 | 60 | 0.0 | 0.0 | 0.00 | 0.00 | 0.00 | 10 | 1005.0 | |
| 20260905023002 | 60 | 0.0 | 0.0 | 0.00 | 0.00 | 0.00 | 10 | 1005.2 | |
| 20260905022501 | 60 | 0.0 | 0.0 | 0.00 | 0.00 | 0.00 | 10 | 1005.1 | |
| 20260905022002 | 60 | 0.0 | 0.0 | 0.00 | 0.00 | 0.00 | 10 | 1005.2 | |
| 20260905021502 | 60 | 0.0 | 0.0 | 0.00 | 0.00 | 0.00 | 10 | 1005.1 | |
| 20260905021002 | 60 | 0.0 | 0.0 | 0.00 | 0.00 | 0.00 | 10 | 1005.0 | |
| 20260905020502 | 60 | 0.0 | 0.0 | 0.00 | 0.00 | 0.00 | 10 | 1005.1 | |
| 20260905020002 | 60 | 0.0 | 0.0 | 0.00 | 0.00 | 0.00 | 10 | 1005.0 | |
| 20260905015502 | 60 | 0.0 | 0.0 | 0.00 | 0.00 | 0.00 | 10 | 1005.0 | |
| 20260905015002 | 60 | 0.0 | 0.0 | 0.00 | 0.00 | 0.00 | 10 | 1004.8 | |
| 20260905014501 | 60 | 0.0 | 0.0 | 0.00 | 0.00 | 0.00 | 10 | 1004.7 | |
| 20260905014002 | 60 | 0.0 | 0.0 | 0.00 | 0.00 | 0.00 | 10 | 1004.4 | |
| 20260905013502 | 60 | 0.0 | 0.0 | 0.00 | 0.00 | 0.00 | 10 | 1004.5 | |
| 20260905013002 | 60 | 0.0 | 0.0 | 0.00 | 0.00 | 0.00 | 10 | 1004.5 | |
| 20260905012502 | 61 | 0.0 | 0.0 | 0.00 | 0.00 | 0.00 | 10 | 1004.7 | |
| 20260905012002 | 60 | 0.0 | 0.0 | 0.00 | 0.00 | 0.00 | 10 | 1004.6 | |
| 20260905011501 | 61 | 0.0 | 0.0 | 0.00 | 0.00 | 0.00 | 10 | 1004.6 | |
| 20260905011002 | 61 | 0.0 | 0.0 | 0.00 | 0.00 | 0.00 | 10 | 1004.7 | |
| 20260905010502 | 61 | 0.0 | 0.0 | 0.00 | 0.00 | 0.00 | 10 | 1004.5 | |
| 20260905010002 | 61 | 0.0 | 0.0 | 0.00 | 0.00 | 0.00 | 10 | 1004.6 | |
| 20260905005502 | 61 | 0.0 | 0.0 | 0.00 | 0.00 | 0.00 | 10 | 1004.3 | |
| 20260905005002 | 61 | 0.0 | 0.0 | 0.00 | 0.00 | 0.00 | 10 | 1004.0 | |
| 20260905004502 | 61 | 0.0 | 0.0 | 0.00 | 0.00 | 0.00 | 10 | 1003.9 | |
| 20260905004002 | 61 | 0.0 | 0.0 | 0.00 | 0.00 | 0.00 | 10 | 1003.9 | |
| 20260905003502 | 61 | 0.0 | 0.0 | 0.00 | 0.00 | 0.00 | 10 | 1003.9 | |
| 20260905003002 | 61 | 0.0 | 0.0 | 0.00 | 0.00 | 0.00 | 10 | 1003.9 | |
| 20260905002534 | 61 | 0.0 | 0.0 | 0.00 | 0.00 | 0.00 | 10 | 1003.7 | |
| 20260905002002 | 62 | 0.0 | 0.0 | 0.00 | 0.00 | 0.00 | 10 | 1003.5 | |
| 20260905001502 | 62 | 0.0 | 0.0 | 0.00 | 0.00 | 0.00 | 10 | 1003.5 | |
| 20260905001002 | 62 | 0.0 | 0.0 | 0.00 | 0.00 | 0.00 | 10 | 1003.5 | |
| 20260905000501 | 62 | 0.0 | 0.0 | 0.00 | 0.00 | 0.00 | 10 | 1003.6 | |
| 20260905000002 | 62 | 0.0 | 0.0 | 0.00 | 0.00 | 0.00 | 10 | 1003.6 | |
| 20260904235502 | 62 | 0.0 | 0.0 | 0.00 | 0.00 | 0.00 | 10 | 1003.8 | |
| 20260904235001 | 62 | 0.0 | 0.0 | 0.00 | 0.00 | 0.00 | 10 | 1003.7 | |
| 20260904234502 | 62 | 0.0 | 0.0 | 0.00 | 0.00 | 0.00 | 10 | 1003.6 | |
| 20260904234002 | 62 | 0.0 | 0.0 | 0.00 | 0.00 | 0.00 | 10 | 1003.5 | |
| 20260904233501 | 62 | 0.0 | 0.0 | 0.00 | 0.00 | 0.00 | 10 | 1003.5 | |
| 20260904233002 | 62 | 0.0 | 0.0 | 0.00 | 0.00 | 0.00 | 10 | 1003.5 | |
| 20260904232502 | 62 | 0.0 | 0.0 | 0.00 | 0.00 | 0.00 | 10 | 1003.7 | |
| 20260904232002 | 62 | 0.0 | 0.0 | 0.00 | 0.00 | 0.00 | 10 | 1003.3 | |
| 20260904231502 | 62 | 0.0 | 0.0 | 0.00 | 0.00 | 0.00 | 10 | 1003.4 | |
| 20260904231002 | 62 | 0.0 | 0.0 | 0.00 | 0.00 | 0.00 | 10 | 1003.5 | |
| 20260904230502 | 62 | 0.0 | 0.0 | 0.00 | 0.00 | 0.00 | 10 | 1003.4 | |
| 20260904230002 | 62 | 0.0 | 0.0 | 0.00 | 0.00 | 0.00 | 10 | 1003.5 | |
| 20260904225502 | 62 | 0.0 | 0.0 | 0.00 | 0.00 | 0.00 | 10 | 1003.4 | |
| 20260904225002 | 62 | 0.0 | 0.0 | 0.00 | 0.00 | 0.00 | 10 | 1003.4 | |
| 20260904224501 | 62 | 0.0 | 0.0 | 0.00 | 0.00 | 0.00 | 10 | 1003.4 | |
| 20260904224002 | 62 | 0.0 | 0.0 | 0.00 | 0.00 | 0.00 | 10 | 1003.5 | |
| 20260904223502 | 62 | 0.0 | 0.0 | 0.00 | 0.00 | 0.00 | 10 | 1003.3 | |
| 20260904223002 | 62 | 0.0 | 0.0 | 0.00 | 0.00 | 0.00 | 10 | 1003.1 | |
| 20260904222501 | 62 | 0.0 | 0.0 | 0.00 | 0.00 | 0.00 | 10 | 1002.9 | |
| 20260904222002 | 62 | 0.0 | 0.0 | 0.00 | 0.00 | 0.00 | 10 | 1002.9 | |
| 20260904221502 | 62 | 0.0 | 0.0 | 0.00 | 0.00 | 0.00 | 10 | 1003.0 | |
| 20260904221001 | 62 | 0.0 | 0.0 | 0.00 | 0.00 | 0.00 | 10 | 1003.0 | |
| 20260904220502 | 62 | 0.0 | 0.0 | 0.00 | 0.00 | 0.00 | 10 | 1002.9 | |
| 20260904220002 | 62 | 0.0 | 0.0 | 0.00 | 0.00 | 0.00 | 10 | 1003.1 | |
| 20260904215501 | 62 | 0.0 | 0.0 | 0.00 | 0.00 | 0.00 | 10 | 1003.3 | |
| 20260904215002 | 62 | 0.0 | 0.0 | 0.00 | 0.00 | 0.00 | 10 | 1003.3 | |
| 20260904214502 | 62 | 0.0 | 0.0 | 0.00 | 0.00 | 0.00 | 10 | 1003.2 | |
| 20260904214002 | 62 | 0.0 | 0.0 | 0.00 | 0.00 | 0.00 | 10 | 1003.6 | |
| 20260904213502 | 62 | 0.0 | 0.0 | 0.00 | 0.00 | 0.00 | 10 | 1003.4 | |
| 20260904213002 | 62 | 0.0 | 0.0 | 0.00 | 0.00 | 0.00 | 10 | 1003.1 | |
| 20260904212502 | 62 | 0.0 | 0.0 | 0.00 | 0.00 | 0.00 | 10 | 1002.9 | |
| 20260904212002 | 62 | 0.0 | 0.0 | 0.00 | 0.00 | 0.00 | 10 | 1003.0 | |
| 20260904211502 | 62 | 0.0 | 0.0 | 0.00 | 0.00 | 0.00 | 10 | 1003.0 | |
| 20260904211001 | 62 | 0.0 | 0.0 | 0.00 | 0.00 | 0.00 | 10 | 1003.1 | |
| 20260904210502 | 62 | 0.0 | 0.0 | 0.00 | 0.00 | 0.00 | 10 | 1003.0 | |
| 20260904210002 | 62 | 0.0 | 0.0 | 0.00 | 0.00 | 0.00 | 10 | 1002.6 | |
| 20260904205501 | 62 | 0.0 | 0.0 | 0.00 | 0.00 | 0.00 | 10 | 1002.8 | |
| 20260904205002 | 62 | 0.0 | 0.0 | 0.00 | 0.00 | 0.00 | 10 | 1003.1 | |
| 20260904204502 | 62 | 0.0 | 0.0 | 0.00 | 0.00 | 0.00 | 10 | 1002.9 | |
| 20260904204002 | 62 | 0.0 | 0.0 | 0.00 | 0.00 | 0.00 | 10 | 1003.0 | |
| 20260904203502 | 62 | 0.0 | 0.0 | 0.00 | 0.00 | 0.00 | 10 | 1002.9 |